Regional Weather Roundup
Issued by NWS Northern Indiana

Home | Current Version | Previous Version | Graphics & Text | Print | Product List | Glossary On
Versions: 1 2 3 4 5 6 7 8 9 10 11 12 13 14 15 16 17 18 19 20 21 22 23 24 25 26 27 28 29 30 31 32 33 34 35 36 37 38 39 40 41 42 43 44 45 46 47 48 49 50
000
ASUS43 KIWX 171000
RWRIWX

KIWX WEATHER ROUNDUP
NATIONAL WEATHER SERVICE NORTHERN INDIANA
500 AM EST SUN DEC 17 2017

NOTE: "FAIR" INDICATES FEW OR NO CLOUDS BELOW 12,000 FEET WITH NO
SIGNIFICANT WEATHER AND/OR OBSTRUCTIONS TO VISIBILITY.

* THESE STATIONS ARE NOT UNDER NWS QUALITY CONTROL. THEY ALSO MAY NOT
  REPORT WEATHER SUCH AS PRECIPITATION OR FOG.

INZ001>027-171100-
NORTHERN INDIANA

CITY           SKY/WX    TMP DP  RH WIND       PRES   REMARKS
KNOX*          CLOUDY    30  28  93 CALM      30.08R
SOUTH BEND     CLOUDY    27  26  96 E3        30.09S
GOSHEN         PTCLDY    28  25  88 E5        30.08F WCI  23
MONTICELLO*    CLOUDY    36  28  73 S5        30.07F
WARSAW*        MOCLDY    32  28  86 CALM      30.09S
AUBURN*        FOG       28  27  93 NE8       30.12F VSB 1/2 WCI  20
FORT WAYNE     CLOUDY    27  25  92 E5        30.11F WCI  22
PERU/GRISSOM   PTCLDY    34  29  83 S6        30.08S WCI  29

$$
INZ028>050-171100-
CENTRAL INDIANA

CITY           SKY/WX    TMP DP  RH WIND       PRES   REMARKS
LAFAYETTE      CLOUDY    37  30  75 S3        30.08F
MUNCIE*        PTCLDY    38  28  67 S7        30.10S
INDIANAPOLIS   CLOUDY    38  29  70 S7        30.10F

$$
MIZ043>046-050>051-056>058-064>065-071>073-077>080-171100-
SOUTHWEST LOWER MICHIGAN

CITY           SKY/WX    TMP DP  RH WIND       PRES   REMARKS
BATTLE CREEK   CLOUDY    25  24  96 E7        30.13R FOG     WCI  17
BENTON HARBOR  PTCLDY    26  22  84 E6        30.09S FOG     WCI  19
COLDWATER*     CLOUDY    27  27 100 SE7       30.12S FOG     WCI  19
HILLSDALE*     FOG       27  27 100 SE10      30.12R VSB 1/2 WCI  17
HOLLAND        CLOUDY    23  20  88 E12       30.14R WCI  12
GRAND RAPIDS   CLOUDY    22  18  85 E14       30.14F WCI   9
KALAMAZOO      CLOUDY    25  22  88 E6        30.12R FOG     WCI  18
STURGIS*       CLOUDY    26  25  96 E8        30.10F FOG     WCI  18
THREE RIVERS*  CLOUDY    26  24  93 E6        30.12S FOG     WCI  19

$$
OHZ001>008-015>018-024>025-171100-
NORTHWEST OHIO

CITY           SKY/WX    TMP DP  RH WIND       PRES   REMARKS
DEFIANCE       FOG       29  28  96 E7        30.14F VSB 1/2 WCI  22
FINDLAY        CLOUDY    29  25  85 CALM      30.13R
TOLEDO EXPRESS CLOUDY    29  29 100 E6        30.16R FOG     WCI  23
TOLEDO METCALF CLOUDY    30  27  88 NE6       30.17R WCI  24
LIMA           PTCLDY    32  27  81 S8        30.12F WCI  25

$$
AND FOR LAKE MICHIGAN COASTAL AND OPEN LAKE BUOY OBSERVATIONS

STATION/POSITION TEMP    WIND        PRES    VSBY  WAVE
                 AIR SEA DIR/SP/G                  HT/PER
                 (F)     (DEG/KT/KT) (MB)    (MI)  (FT/S)
CALUMET HARBOR    33     300/  2/  3 1017.3F
MICHIGAN CITY     34     140/  3/  4   N/A
BURNS HARBOR      36      CALM  /  2 1018.6F
SAINT JOSEPH      28     110/  4/  7 1019.6

$$
&&




USA.gov is the U.S. government's official web portal to all federal, state and local government web resources and services.